Regional Weather Roundup
Issued by NWS

Home | Current Version | Previous Version | Text Only | Print | Product List | Glossary On
Versions: 1 2 3 4 5 6 7 8 9 10 11 12 13 14 15 16 17 18 19 20 21 22 23 24 25 26 27 28 29 30 31 32 33 34 35 36 37 38 39 40 41 42 43 44 45 46 47 48 49 50
000
ASUS43 KTOP 210808
RWRKS

WEATHER ROUNDUP FOR KANSAS
NATIONAL WEATHER SERVICE GOODLAND KS
300 AM CDT THU SEP 21 2017

NOTE:  "FAIR" INDICATES FEW OR NO CLOUDS BELOW 12,000 FEET WITH NO
SIGNIFICANT WEATHER AND/OR OBSTRUCTIONS TO VISIBILITY.

KSZ001>006-013>018-027>032-041>047-210900-
NORTHWEST KANSAS

CITY           SKY/WX    TMP DP  RH WIND       PRES   REMARKS
GOODLAND       CLEAR     54  42  64 S13       29.85F
HAYS           CLEAR     60  52  74 NE7       29.83F
HILL CITY      CLEAR     54  44  69 E3        29.85F
RUSSELL        CLEAR     59  53  80 N3        29.82F
$$

KSZ061>065-074>080-084>089-210900-
SOUTHWEST KANSAS

CITY           SKY/WX    TMP DP  RH WIND       PRES   REMARKS
DODGE CITY     CLEAR     58  49  72 S9        29.85F
ELKHART          N/A     57  45  64 W5          N/A
GARDEN CITY    CLEAR     56  45  66 SE7       29.85F
GREAT BEND     CLEAR     60  54  80 CALM      29.83S
LIBERAL        CLEAR     55  47  74 SW7       29.87F
PRATT          CLEAR     65  60  81 S5        29.83F
$$

KSZ066>073-081>083-090>101-210900-
SOUTHEAST KANSAS

CITY           SKY/WX    TMP DP  RH WIND       PRES   REMARKS
CHANUTE        CLEAR     76  72  87 SE5       29.89F
COFFEYVILLE    CLEAR     76  72  87 SE7       29.88S
HUTCHINSON     CLEAR     77  72  84 S10       29.82S
MEDICINE LODGE   N/A     73  68  84 SE5       29.82S
NEWTON         CLEAR     73  70  90 S9        29.86S
WICHITA INTL   PTCLDY    76  72  87 SE9       29.84R
WICHITA JABRA  CLEAR     76  73  91 S10       29.84
WICHITA MCCONL CLEAR     76  71  82 S9        29.84F
WINFIELD       CLEAR     76  73  91 SE8       29.85F
$$

KSZ007>012-019>026-033>040-048>060-102>105-210900-
NORTHEAST KANSAS

CITY           SKY/WX    TMP DP  RH WIND       PRES   REMARKS
CONCORDIA      CLEAR     63  59  87 E5        29.83F
EMPORIA        PTCLDY    77  71  82 S13       29.86S
LAWRENCE       PTCLDY    79  73  82 S7        29.87S
MANHATTAN      CLEAR     72  68  87 CALM      29.83F
MARYSVILLE     CLEAR     70  61  73 SE6       29.85F
OLATHE IND     CLEAR     77  72  84 S9        29.90S
OLATHE EXE     PTCLDY    75  73  93 S7        29.90S
SALINA         PTCLDY    74  64  71 E5        29.81F
TOPEKA BILLARD CLEAR     75  73  93 E3        29.86S
TOPEKA FORBES  PTCLDY    78  74  87 S7        29.87S
$$



USA.gov is the U.S. government's official web portal to all federal, state and local government web resources and services.